| time (UTC) | temp C | wind direction | speed KPH | gust KPH | rain 1hr cm | rain 24hr cm | rain mn cm | humidity % | barometer mb |
| 20260502130301 | -3 | 140 | 0.0 | 4.8 | 0.00 | 0.00 | 0.00 | 66 | 1026.5 |
| 20260502123301 | -4 | 138 | 0.0 | 3.2 | 0.00 | 0.00 | 0.00 | 65 | 1026.4 |
| 20260502122306 | -4 | 150 | 0.0 | 3.2 | 0.00 | 0.00 | 0.00 | 66 | 1026.4 |
| 20260502121301 | -3 | 138 | 0.0 | 3.2 | 0.00 | 0.00 | 0.00 | 65 | 1026.3 |
| 20260502120301 | -3 | 147 | 0.0 | 3.2 | 0.00 | 0.00 | 0.00 | 65 | 1026.2 |
| 20260502115301 | -3 | 130 | 0.0 | 3.2 | 0.00 | 0.00 | 0.00 | 64 | 1026.2 |
| 20260502114300 | -3 | 131 | 0.0 | 1.6 | 0.00 | 0.00 | 0.00 | 63 | 1026.2 |
| 20260502114009 | -3 | 141 | 0.0 | 1.6 | 0.00 | 0.00 | 0.00 | 65 | 1026.2 |
| 20260502113854 | -3 | 141 | 0.0 | 1.6 | 0.00 | 0.00 | 0.00 | 65 | 1026.2 |
| 20260502113300 | -3 | 141 | 0.0 | 1.6 | 0.00 | 0.00 | 0.00 | 65 | 1026.2 |
| 20260502112300 | -3 | 129 | 1.6 | 3.2 | 0.00 | 0.00 | 0.00 | 64 | 1026.2 |
| 20260502111300 | -3 | 150 | 0.0 | 3.2 | 0.00 | 0.00 | 0.00 | 63 | 1026.2 |
| 20260502104200 | -3 | 134 | 0.0 | 1.6 | 0.00 | 0.00 | 0.00 | 63 | 1026.1 |
| 20260502103200 | -2 | 135 | 0.0 | 1.6 | 0.00 | 0.00 | 0.00 | 62 | 1026.1 |
| 20260502101131 | -2 | 131 | 0.0 | 3.2 | 0.00 | 0.00 | 0.00 | 62 | 1025.9 |
| 20260502070700 | -1 | 144 | 0.0 | 3.2 | 0.00 | 0.00 | 0.00 | 59 | 1025.9 |
| 20260502065700 | -1 | 146 | 0.0 | 0.0 | 0.00 | 0.00 | 0.00 | 58 | 1025.8 |
| 20260502062700 | -1 | 147 | 3.2 | 4.8 | 0.00 | 0.00 | 0.00 | 60 | 1025.6 |
| 20260502061700 | -1 | 136 | 0.0 | 1.6 | 0.00 | 0.00 | 0.00 | 58 | 1025.6 |
| 20260502055700 | -1 | 127 | 0.0 | 0.0 | 0.00 | 0.00 | 0.00 | 58 | 1025.5 |
| 20260502052629 | -1 | 147 | 0.0 | 1.6 | 0.00 | 0.00 | 0.00 | 55 | 1025.5 |
| 20260502051629 | -1 | 155 | 1.6 | 3.2 | 0.00 | 0.00 | 0.00 | 55 | 1025.4 |
| 20260502050629 | -1 | 135 | 0.0 | 1.6 | 0.00 | 0.00 | 0.00 | 55 | 1025.4 |
| 20260502045629 | -1 | 147 | 0.0 | 0.0 | 0.00 | 0.00 | 0.00 | 55 | 1025.3 |
| 20260502044629 | -1 | 147 | 0.0 | 0.0 | 0.00 | 0.00 | 0.00 | 55 | 1025.3 |
| 20260502041628 | -1 | 359 | 0.0 | 0.0 | 0.00 | 0.00 | 0.00 | 53 | 1025.1 |
| 20260502040628 | -1 | 359 | 0.0 | 0.0 | 0.00 | 0.00 | 0.00 | 50 | 1025.0 |
| 20260502035558 | 0 | 359 | 0.0 | 0.0 | 0.00 | 0.00 | 0.00 | 49 | 1024.8 |
| 20260502034558 | 0 | 359 | 0.0 | 1.6 | 0.00 | 0.00 | 0.00 | 46 | 1024.7 |
| 20260502033558 | 1 | 359 | 0.0 | 0.0 | 0.00 | 0.00 | 0.00 | 44 | 1024.6 |
| 20260502032528 | 2 | 359 | 0.0 | 0.0 | 0.00 | 0.00 | 0.00 | 42 | 1024.4 |
| 20260502024528 | 5 | 358 | 0.0 | 1.6 | 0.00 | 0.00 | 0.00 | 30 | 1023.9 |
| 20260502022528 | 6 | 279 | 0.0 | 0.0 | 0.00 | 0.00 | 0.00 | 28 | 1023.8 |
| 20260502020528 | 7 | 180 | 0.0 | 3.2 | 0.00 | 0.00 | 0.00 | 27 | 1023.6 |
| 20260502015458 | 7 | 158 | 0.0 | 1.6 | 0.00 | 0.00 | 0.00 | 25 | 1023.5 |
| 20260502014458 | 7 | 153 | 0.0 | 4.8 | 0.00 | 0.00 | 0.00 | 25 | 1023.4 |
| 20260502013458 | 8 | 130 | 0.0 | 4.8 | 0.00 | 0.00 | 0.00 | 23 | 1023.4 |
| 20260502012459 | 8 | 140 | 0.0 | 0.0 | 0.00 | 0.00 | 0.00 | 23 | 1023.2 |
| 20260502011457 | 8 | 32 | 3.2 | 4.8 | 0.00 | 0.00 | 0.00 | 22 | 1023.1 |
| 20260502010458 | 9 | 316 | 1.6 | 4.8 | 0.00 | 0.00 | 0.00 | 23 | 1023.1 |
| 20260502004357 | 10 | 352 | 1.6 | 6.4 | 0.00 | 0.00 | 0.00 | 22 | 1022.9 |
| 20260502003357 | 10 | 282 | 1.6 | 6.4 | 0.00 | 0.00 | 0.00 | 22 | 1023.0 |
| 20260502002328 | 10 | 328 | 0.0 | 8.0 | 0.00 | 0.00 | 0.00 | 24 | 1022.9 |
| 20260502001327 | 11 | 304 | 3.2 | 8.0 | 0.00 | 0.00 | 0.00 | 23 | 1022.8 |
| 20260502000332 | 11 | 287 | 1.6 | 6.4 | 0.00 | 0.00 | 0.00 | 24 | 1022.9 |
| 20260501235327 | 11 | 63 | 4.8 | 9.7 | 0.00 | 0.00 | 0.00 | 24 | 1022.8 |
| 20260501234257 | 10 | 100 | 3.2 | 9.7 | 0.00 | 0.00 | 0.00 | 24 | 1022.8 |
| 20260501233257 | 11 | 48 | 4.8 | 4.8 | 0.00 | 0.00 | 0.00 | 25 | 1022.8 |
| 20260501232257 | 11 | 300 | 8.0 | 8.0 | 0.00 | 0.00 | 0.00 | 24 | 1022.6 |
| 20260501230257 | 11 | 325 | 1.6 | 8.0 | 0.00 | 0.00 | 0.00 | 27 | 1022.6 |
| 20260501225258 | 11 | 303 | 3.2 | 9.7 | 0.00 | 0.00 | 0.00 | 24 | 1022.6 |
| 20260501224257 | 11 | 56 | 0.0 | 9.7 | 0.00 | 0.00 | 0.00 | 24 | 1022.6 |
| 20260501223256 | 11 | 354 | 4.8 | 9.7 | 0.00 | 0.00 | 0.00 | 24 | 1022.7 |
| 20260501221230 | 11 | 333 | 4.8 | 11.3 | 0.00 | 0.00 | 0.00 | 23 | 1022.6 |
| 20260501220230 | 12 | 18 | 4.8 | 9.7 | 0.00 | 0.00 | 0.00 | 26 | 1022.6 |
| 20260501214230 | 12 | 298 | 1.6 | 6.4 | 0.00 | 0.00 | 0.00 | 22 | 1022.7 |
| 20260501213226 | 11 | 25 | 1.6 | 6.4 | 0.00 | 0.00 | 0.00 | 21 | 1022.8 |
| 20260501212230 | 11 | 60 | 4.8 | 8.0 | 0.00 | 0.00 | 0.00 | 23 | 1022.8 |
| 20260501210226 | 11 | 217 | 0.0 | 6.4 | 0.00 | 0.00 | 0.00 | 20 | 1022.8 |
| 20260501201156 | 11 | 306 | 1.6 | 11.3 | 0.00 | 0.00 | 0.00 | 25 | 1022.9 |
| 20260501200126 | 11 | 34 | 6.4 | 6.4 | 0.00 | 0.00 | 0.00 | 21 | 1022.9 |
| 20260501192056 | 11 | 282 | 1.6 | 4.8 | 0.00 | 0.00 | 0.00 | 18 | 1023.1 |
| 20260501190056 | 11 | 162 | 1.6 | 4.8 | 0.00 | 0.00 | 0.00 | 18 | 1023.3 |
| 20260501185056 | 11 | 253 | 1.6 | 4.8 | 0.00 | 0.00 | 0.00 | 22 | 1023.3 |
| 20260501184025 | 10 | 304 | 0.0 | 4.8 | 0.00 | 0.00 | 0.00 | 18 | 1023.4 |
| 20260501182955 | 9 | 11 | 0.0 | 4.8 | 0.00 | 0.00 | 0.00 | 16 | 1023.5 |
| 20260501181928 | 9 | 23 | 0.0 | 8.0 | 0.00 | 0.00 | 0.00 | 21 | 1023.5 |
| 20260501175825 | 9 | 307 | 4.8 | 8.0 | 0.00 | 0.00 | 0.00 | 21 | 1023.6 |
| 20260501174825 | 9 | 144 | 1.6 | 4.8 | 0.00 | 0.00 | 0.00 | 22 | 1023.7 |
| 20260501173755 | 8 | 266 | 0.0 | 4.8 | 0.00 | 0.00 | 0.00 | 24 | 1023.8 |
| 20260501171725 | 7 | 319 | 0.0 | 8.0 | 0.00 | 0.00 | 0.00 | 22 | 1023.9 |
| 20260501170725 | 7 | 36 | 1.6 | 4.8 | 0.00 | 0.00 | 0.00 | 25 | 1024.0 |
| 20260501163655 | 6 | 30 | 0.0 | 4.8 | 0.00 | 0.00 | 0.00 | 25 | 1024.2 |
| 20260501161556 | 5 | 62 | 0.0 | 6.4 | 0.00 | 0.00 | 0.00 | 27 | 1024.2 |
| 20260501160555 | 5 | 107 | 3.2 | 6.4 | 0.00 | 0.00 | 0.00 | 29 | 1024.3 |
| 20260501155555 | 5 | 41 | 4.8 | 6.4 | 0.00 | 0.00 | 0.00 | 29 | 1024.3 |
| 20260501152525 | 4 | 262 | 1.6 | 1.6 | 0.00 | 0.00 | 0.00 | 35 | 1024.5 |
| 20260501145524 | 2 | 186 | 0.0 | 0.0 | 0.00 | 0.00 | 0.00 | 50 | 1024.6 |
| 20260501143454 | 0 | 160 | 0.0 | 0.0 | 0.00 | 0.00 | 0.00 | 58 | 1024.6 |
| 20260501142454 | -1 | 144 | 0.0 | 0.0 | 0.00 | 0.00 | 0.00 | 64 | 1024.6 |